Sauk Centre, MN

5:50 AM CDT on October 16, 2019 (GMT -0500)
Sauk Centre

Weather History for KD39 - August, 2019

Change the Weather History Date:

Tuesday, August 13, 2019

  Actual Average (KGHW) Record (KGHW)
Temperature  
Mean Temperature 66 °F -  
Max Temperature 73 °F 81 °F 93 °F (1965)
Min Temperature 60 °F 57 °F 43 °F (1964)
Cooling Degree Days 2    
Growing Degree Days 16 (Base 50)    
Moisture  
Dew Point 61 °F    
Average Humidity 85    
Maximum Humidity 96    
Minimum Humidity 68    
Precipitation  
Precipitation 0.17 in - - ()
Sea Level Pressure  
Sea Level Pressure 29.93 in    
Wind  
Wind Speed 4 mph (NE)    
Max Wind Speed 21 mph    
Max Gust Speed 25 mph    
Visibility 10 miles    
Events Rain    
Averages and records for this station are not official NWS values.
T = Trace of Precipitation, MM = Missing Value Source: NWS Daily Summary

Daily Weather History Graph

Daily Weather History Graph

Search for Another Location

Airport or City:

Astronomy

Aug. 13, 2019 Rise Set
Actual Time 6:17 AM CDT 8:31 PM CDT
Civil Twilight 5:44 AM CDT 9:03 PM CDT
Nautical Twilight 5:03 AM CDT 9:44 PM CDT
Astronomical Twilight 4:18 AM CDT 10:29 PM CDT
Moon 7:52 PM CDT (8/13) 4:12 AM CDT (8/13)
Length of Visible Light 15h 19m
Length of Day
14h 13m
Waxing Gibbous, 97% of the Moon is Illuminated
Aug 13
Waxing Gibbous
Aug 15
Full
Aug 23
Last Quarter
Aug 30
New
Sep 5
First Quarter

Hourly Weather History & Observations

Time (CDT) Temp. Dew Point Humidity Pressure Visibility Wind Dir Wind Speed Gust Speed Precip Events Conditions
12:17 AM 64.9 °F 62.8 °F 93% 29.91 in 10.0 mi ENE 6.9 mph - N/A   Overcast
12:35 AM 64.8 °F 62.6 °F 93% 29.91 in 10.0 mi NNE 3.5 mph - N/A   Overcast
12:55 AM 64.2 °F 61.9 °F 92% 29.91 in 10.0 mi ENE 4.6 mph - N/A   Overcast
12:56 AM 64.2 °F 61.7 °F 91% 29.91 in 10.0 mi ENE 3.5 mph - N/A   Overcast
1:15 AM 63.7 °F 61.3 °F 92% 29.91 in 10.0 mi Calm Calm - N/A   Overcast
1:16 AM 63.7 °F 61.3 °F 92% 29.91 in 10.0 mi Calm Calm - N/A   Overcast
1:39 AM 63.0 °F 59.0 °F 87% 29.91 in 10.0 mi ENE 3.5 mph - N/A   Overcast
1:56 AM 62.8 °F 58.3 °F 85% 29.91 in 10.0 mi ENE 3.5 mph - N/A   Overcast
2:15 AM 62.8 °F 58.3 °F 85% 29.91 in 10.0 mi Calm Calm - N/A   Overcast
2:16 AM 62.8 °F 58.3 °F 85% 29.91 in 10.0 mi Calm Calm - N/A   Overcast
2:35 AM 62.2 °F 59.2 °F 90% 29.91 in 10.0 mi Calm Calm - N/A   Overcast
2:36 AM 62.2 °F 59.2 °F 90% 29.91 in 10.0 mi Calm Calm - N/A   Overcast
2:55 AM 61.9 °F 58.8 °F 90% 29.90 in 10.0 mi East 3.5 mph - N/A   Overcast
3:00 AM 61.7 °F 58.1 °F 88% 29.90 in 10.0 mi Calm Calm - N/A   Overcast
3:17 AM 61.0 °F 58.1 °F 90% 29.90 in 10.0 mi Calm Calm - N/A   Mostly Cloudy
3:35 AM 61.0 °F 57.2 °F 87% 29.91 in 10.0 mi Calm Calm - N/A   Mostly Cloudy
3:55 AM 61.2 °F 56.8 °F 86% 29.90 in 10.0 mi ENE 3.5 mph - N/A   Overcast
3:56 AM 61.2 °F 56.7 °F 85% 29.90 in 10.0 mi ENE 3.5 mph - N/A   Overcast
4:15 AM 61.3 °F 56.3 °F 83% 29.91 in 10.0 mi Calm Calm - N/A   Overcast
4:16 AM 61.3 °F 56.3 °F 83% 29.91 in 10.0 mi Calm Calm - N/A   Overcast
4:56 AM 60.4 °F 57.6 °F 90% 29.91 in 10.0 mi North 3.5 mph - N/A   Overcast
5:15 AM 60.8 °F 57.2 °F 88% 29.92 in 10.0 mi Calm Calm - N/A   Overcast
5:16 AM 60.8 °F 57.2 °F 88% 29.92 in 10.0 mi Calm Calm - N/A   Overcast
5:35 AM 60.8 °F 57.2 °F 88% 29.93 in 10.0 mi North 3.5 mph - N/A   Overcast
5:36 AM 60.8 °F 57.2 °F 88% 29.93 in 10.0 mi North 3.5 mph - N/A   Overcast
5:55 AM 60.4 °F 57.4 °F 90% 29.93 in 10.0 mi Calm Calm - N/A   Overcast
6:00 AM 60.4 °F 57.4 °F 90% 29.93 in 10.0 mi Calm Calm - N/A   Overcast
6:18 AM 60.4 °F 57.4 °F 90% 29.93 in 10.0 mi Calm Calm - N/A   Overcast
6:36 AM 60.3 °F 57.7 °F 91% 29.94 in 10.0 mi Calm Calm - N/A   Overcast
6:55 AM 60.3 °F 58.1 °F 93% 29.94 in 10.0 mi Calm Calm - N/A   Overcast
6:56 AM 60.3 °F 58.1 °F 93% 29.94 in 10.0 mi Calm Calm - N/A   Overcast
7:15 AM 60.4 °F 58.1 °F 92% 29.94 in 10.0 mi ENE 3.5 mph - N/A   Overcast
7:16 AM 60.4 °F 58.1 °F 92% 29.94 in 10.0 mi ENE 3.5 mph - N/A   Overcast
7:35 AM 60.8 °F 58.1 °F 91% 29.94 in 10.0 mi ENE 4.6 mph - N/A   Mostly Cloudy
7:40 AM 61.0 °F 58.1 °F 90% 29.94 in 10.0 mi ENE 5.8 mph - N/A   Scattered Clouds
7:57 AM 61.9 °F 57.2 °F 85% 29.95 in 10.0 mi East 4.6 mph - N/A   Clear
8:15 AM 62.4 °F 57.0 °F 82% 29.94 in 10.0 mi East 6.9 mph - N/A   Mostly Cloudy
8:35 AM 62.2 °F 56.7 °F 82% 29.95 in 10.0 mi East 5.8 mph - N/A   Mostly Cloudy
8:36 AM 62.2 °F 56.7 °F 82% 29.95 in 10.0 mi East 6.9 mph - N/A   Mostly Cloudy
8:55 AM 63.9 °F 57.9 °F 81% 29.95 in 10.0 mi ESE 3.5 mph - N/A   Scattered Clouds
8:56 AM 63.9 °F 57.9 °F 81% 29.95 in 10.0 mi ESE 4.6 mph - N/A   Scattered Clouds
9:18 AM 64.6 °F 58.1 °F 79% 29.94 in 10.0 mi East 4.6 mph - N/A   Clear
9:36 AM 65.7 °F 58.8 °F 79% 29.94 in 10.0 mi ESE 5.8 mph - N/A   Clear
9:55 AM 66.4 °F 59.4 °F 78% 29.93 in 10.0 mi SE 5.8 mph - N/A   Clear
9:56 AM 66.4 °F 59.5 °F 79% 29.93 in 10.0 mi SE 4.6 mph - N/A   Clear
10:35 AM 68.0 °F 60.8 °F 78% 29.94 in 10.0 mi SSE 3.5 mph - N/A   Clear
10:40 AM 68.7 °F 61.5 °F 78% 29.94 in 10.0 mi Calm Calm - N/A   Clear
10:57 AM 69.4 °F 62.2 °F 78% 29.94 in 10.0 mi South 4.6 mph - N/A   Scattered Clouds
11:15 AM 70.2 °F 62.8 °F 77% 29.94 in 10.0 mi SSW 5.8 mph - N/A   Mostly Cloudy
11:35 AM 70.2 °F 63.3 °F 79% 29.94 in 10.0 mi SSW 3.5 mph - N/A   Overcast
11:36 AM 70.2 °F 63.3 °F 79% 29.94 in 10.0 mi SSW 4.6 mph - N/A   Overcast
11:55 AM 69.4 °F 63.3 °F 81% 29.94 in 10.0 mi SSW 4.6 mph - N/A   Overcast
11:56 AM 69.4 °F 63.3 °F 81% 29.94 in 10.0 mi SSW 5.8 mph - N/A   Overcast
12:19 PM 70.7 °F 64.6 °F 81% 29.93 in 10.0 mi South 6.9 mph - N/A   Overcast
12:35 PM 71.1 °F 64.8 °F 80% 29.93 in 10.0 mi South 4.6 mph - N/A   Overcast
12:55 PM 71.8 °F 64.9 °F 79% 29.92 in 10.0 mi South 6.9 mph - N/A   Overcast
12:56 PM 72.0 °F 65.1 °F 79% 29.92 in 10.0 mi South 6.9 mph - N/A   Overcast
1:15 PM 70.7 °F 64.4 °F 80% 29.91 in 7.0 mi Calm Calm - N/A Rain Light Rain
1:39 PM 71.2 °F 65.1 °F 81% 29.90 in 10.0 mi East 5.8 mph - 0.01 in   Mostly Cloudy
1:56 PM 70.9 °F 65.8 °F 84% 29.90 in 10.0 mi WNW 6.9 mph - 0.01 in   Overcast
2:35 PM 66.6 °F 62.4 °F 86% 29.90 in 4.0 mi West 12.7 mph - 0.10 in Rain Light Rain
2:36 PM 66.6 °F 62.4 °F 86% 29.90 in 4.0 mi West 11.5 mph - 0.10 in Rain Light Rain
2:55 PM 72.1 °F 64.8 °F 78% 29.89 in 10.0 mi WSW 17.3 mph 23.0 mph 0.10 in   Mostly Cloudy
2:59 PM 72.5 °F 63.9 °F 74% 29.89 in 10.0 mi WSW 17.3 mph 23.0 mph 0.10 in   Scattered Clouds
3:17 PM 72.7 °F 62.2 °F 70% 29.90 in 10.0 mi West 20.7 mph 24.2 mph N/A   Scattered Clouds
3:36 PM 73.6 °F 63.0 °F 69% 29.91 in 10.0 mi West 18.4 mph 25.3 mph N/A   Scattered Clouds
3:55 PM 72.5 °F 61.3 °F 68% 29.91 in 10.0 mi WNW 13.8 mph 24.2 mph N/A   Scattered Clouds
3:56 PM 72.3 °F 61.3 °F 68% 29.91 in 10.0 mi WNW 12.7 mph 21.9 mph N/A   Scattered Clouds
4:15 PM 71.1 °F 60.3 °F 69% 29.91 in 10.0 mi WNW 10.4 mph 18.4 mph N/A   Mostly Cloudy
4:16 PM 71.1 °F 60.4 °F 69% 29.92 in 10.0 mi WNW 10.4 mph 18.4 mph N/A   Mostly Cloudy
4:35 PM 71.1 °F 60.4 °F 69% 29.92 in 10.0 mi NW 12.7 mph 18.4 mph N/A   Overcast
4:40 PM 70.9 °F 60.4 °F 69% 29.92 in 10.0 mi NW 12.7 mph 16.1 mph N/A   Overcast
4:57 PM 70.0 °F 59.9 °F 70% 29.92 in 10.0 mi WNW 9.2 mph - N/A   Overcast
5:16 PM 69.8 °F 60.4 °F 72% 29.92 in 10.0 mi North 9.2 mph - N/A   Overcast
5:35 PM 68.4 °F 61.9 °F 80% 29.93 in 10.0 mi North 8.1 mph - N/A   Overcast
5:36 PM 68.4 °F 62.1 °F 80% 29.93 in 10.0 mi NNE 6.9 mph - N/A   Overcast
5:55 PM 66.9 °F 63.1 °F 88% 29.94 in 5.0 mi NNW 6.9 mph - 0.05 in Rain Heavy Rain
5:56 PM 66.7 °F 63.1 °F 88% 29.94 in 4.0 mi NNW 8.1 mph - 0.06 in Rain Heavy Rain
6:18 PM 65.7 °F 63.5 °F 93% 29.94 in 10.0 mi North 4.6 mph - N/A   Overcast
6:36 PM 66.4 °F 63.5 °F 90% 29.94 in 10.0 mi NE 6.9 mph - N/A   Overcast
6:56 PM 65.8 °F 63.5 °F 92% 29.94 in 10.0 mi NE 5.8 mph - N/A   Overcast
7:15 PM 65.8 °F 63.3 °F 92% 29.94 in 10.0 mi NE 5.8 mph - N/A   Overcast
7:16 PM 66.0 °F 63.5 °F 92% 29.94 in 10.0 mi NE 6.9 mph - N/A   Overcast
7:35 PM 65.3 °F 63.0 °F 92% 29.95 in 10.0 mi ENE 6.9 mph - N/A   Overcast
7:57 PM 64.8 °F 62.8 °F 93% 29.96 in 10.0 mi NNE 6.9 mph - N/A   Overcast
8:16 PM 64.4 °F 62.4 °F 93% 29.97 in 10.0 mi NNE 5.8 mph - N/A   Overcast
8:35 PM 64.0 °F 62.6 °F 95% 29.97 in 10.0 mi North 5.8 mph - N/A   Overcast
8:36 PM 64.0 °F 62.6 °F 95% 29.97 in 10.0 mi North 5.8 mph - N/A   Overcast
8:55 PM 63.9 °F 62.6 °F 96% 29.97 in 10.0 mi North 5.8 mph - N/A   Overcast
9:18 PM 63.9 °F 62.6 °F 96% 29.98 in 10.0 mi North 5.8 mph - N/A   Overcast
9:37 PM 63.9 °F 62.6 °F 96% 29.99 in 10.0 mi North 5.8 mph - N/A Rain Light Rain
9:56 PM 63.9 °F 62.6 °F 96% 29.99 in 10.0 mi NNE 8.1 mph - N/A   Overcast
10:15 PM 63.7 °F 61.9 °F 94% 30.00 in 10.0 mi NNE 6.9 mph - N/A   Overcast
10:16 PM 63.7 °F 61.9 °F 94% 30.00 in 10.0 mi NNE 5.8 mph - N/A   Overcast
10:35 PM 63.1 °F 61.2 °F 93% 30.00 in 10.0 mi NNE 6.9 mph - N/A   Overcast
10:57 PM 62.2 °F 60.4 °F 94% 30.01 in 10.0 mi NNE 5.8 mph - N/A   Mostly Cloudy
11:15 PM 61.9 °F 60.1 °F 94% 30.02 in 10.0 mi NNE 4.6 mph - N/A   Scattered Clouds
11:35 PM 61.5 °F 59.9 °F 94% 30.02 in 10.0 mi North 4.6 mph - N/A   Mostly Cloudy
11:36 PM 61.3 °F 59.9 °F 95% 30.02 in 10.0 mi North 4.6 mph - N/A   Mostly Cloudy
11:55 PM 60.8 °F 59.4 °F 95% 30.02 in 10.0 mi North 5.8 mph - N/A   Mostly Cloudy